Regional Weather Roundup
Issued by NWS

Home | Current Version | Previous Version | Text Only | Print | Product List | Glossary On
Versions: 1 2 3 4 5 6 7 8 9 10 11 12 13 14 15 16 17 18 19 20 21 22 23 24 25 26 27 28 29 30 31 32 33 34 35 36 37 38 39 40 41 42 43 44 45 46 47 48 49 50
000
ASUS45 KBOU 020807
RWRCO

WEATHER ROUNDUP FOR COLORADO
NATIONAL WEATHER SERVICE DENVER/BOULDER CO
200 AM MDT TUE SEP 02 2014

NOTE: "FAIR" INDICATES FEW OR NO CLOUDS BELOW 12000 FEET WITH NO
SIGNIFICANT WEATHER AND/OR OBSTRUCTIONS TO VISIBILITY.

COZ001>005-013-030-031-020900-
...NORTHWEST COLORADO...

CITY           SKY/WX    TMP DP  RH WIND       PRES   REMARKS
CRAIG          CLEAR     43  39  86 CALM      30.19S
HAYDEN         CLEAR     46  36  66 SE6       30.20S
MEEKER         CLEAR     48  37  65 CALM      30.20S
MOUNT WERNER   NOT AVBL
STEAMBOAT SPGS CLEAR     44  38  80 CALM      30.22F
WALDEN         CLEAR     36  32  87 SE10      30.27F
$$

COZ006>008-011-020900-
...WEST CENTRAL VALLEYS...

CITY           SKY/WX    TMP DP  RH WIND       PRES   REMARKS
GRAND JUNCTION CLEAR     58  41  53 VRB5      30.06F
MONTROSE       CLEAR     61  36  39 SE10      30.15F
EAGLE          CLEAR     48  36  61 S3        30.24S
RIFLE          CLEAR     53  39  59 E3        30.14S
DELTA          CLEAR     60  38  44 E7        30.12S
NUCLA          CLEAR     59  34  38 SE7       30.18S
$$

COZ017>023-064>068-020900-
...SOUTHWEST COLORADO...

CITY           SKY/WX    TMP DP  RH WIND       PRES   REMARKS
DURANGO        CLEAR     54  34  46 CALM      30.18F
CORTEZ         CLEAR     53  37  54 NE7       30.13F
PAGOSA SPRINGS CLEAR     50  31  47 CALM      30.27S
TELLURIDE      CLEAR     52  32  46 SE8       30.37F
WOLF CREEK PAS CLEAR     46  27  46 SW12      30.57S
$$

COZ009-010-012-014-032>034-037-058>063-020900-
...CENTRAL COLORADO...

CITY           SKY/WX    TMP DP  RH WIND       PRES   REMARKS
ASPEN          CLEAR     46  33  60 SW9       30.28F
BUENA VISTA    CLEAR     51  32  48 NW13      30.28F
COPPER MTN     CLEAR     45  28  53 S13       30.54S
BERTHOUD PASS  FAIR      37  36  93 W20       30.55F
COTTONWOOD PAS CLEAR     54  25  32 N5        30.40S
GUNNISON       CLEAR     45  32  61 E3        30.32F
KREMMLING      CLEAR     37  32  81 CALM      30.29S
LEADVILLE      CLEAR     36  28  73 NE5       30.40F
MONARCH PASS   CLEAR     43  27  52 SW16      30.64F
SALIDA         CLEAR     50  33  52 CALM      30.34S
SUNLIGHT       CLEAR     46  32  57 CALM      30.47S
WILKERSON PASS NOT AVBL
$$

COZ069>075-020900-
...SAN LUIS VALLEY/SANGRE DE CRISTO MOUNTAINS...

CITY           SKY/WX    TMP DP  RH WIND       PRES   REMARKS
ALAMOSA        PTCLDY    49  33  54 W8        30.25S
LA VETA PASS   NOT AVBL
SAGUACHE       NOT AVBL
$$

COZ035-036-038>040-020900-
...NORTHERN COLORADO FRONT RANGE...

CITY           SKY/WX    TMP DP  RH WIND       PRES   REMARKS
DENVER INTL AP PTCLDY    53  44  71 W6        30.17R
DMNS CITY PARK   N/A     55  43  64 N2        30.17S
AURORA         CLEAR     50  44  78 NW7       30.18R
FRONT RANGE AP CLEAR     54  45  71 W3        30.17R
ERIE MUNI ARPT CLEAR     51  46  82 CALM      30.16F
BOULDER MUN AP CLEAR     55  45  67 S3        30.16F
CENTENNIAL     PTCLDY    54  43  66 NW8       30.18R
BROOMFIELD     CLEAR     57  43  58 CALM      30.19S
FORT COLLINS   CLEAR     54  46  76 S6        30.16F
LONGMONT       CLEAR     52  46  80 CALM      30.17F
$$

COZ041-046-047-076>085-087-088-020900-
...PIKES PEAK/PALMER DIVIDE AND SOUTHERN FOOTHILLS...

CITY           SKY/WX    TMP DP  RH WIND       PRES   REMARKS
COLO. SPRINGS  CLEAR     60  50  69 S7        30.18F
A. F. ACADEMY  CLEAR     48  44  85 N6        30.20S
ELLICOTT       CLEAR     56  52  86 W3        30.16S
FALCON         CLEAR     52  45  75 W7        30.22F
FORT CARSON    CLEAR     61  49  65 S1        30.15F
LIMON          CLEAR     52  46  80 N3        30.12F
MONUMENT HILL  CLEAR     50  43  76 W12       30.22R
TRINIDAD       CLEAR     62  43  49 NW12      30.11F
$$

COZ042>045-048>051-090-091-020900-
...NORTHEAST COLORADO...

CITY           SKY/WX    TMP DP  RH WIND       PRES   REMARKS
GREELEY ARPT   CLEAR     52  39  62 W3        30.15S
AKRON          CLEAR     51  47  86 MISG      30.10F
BURLINGTON     CLEAR     62  54  74 NE6       30.06R
WRAY             N/A     56  54  92 E3        30.07F
STERLING       CLEAR     54  50  87 NE3       30.08S
HOLYOKE        CLEAR     54  50  87 CALM      30.08S
FORT MORGAN    CLEAR     49  45  83 NE7       30.11F
$$

COZ086-089-092>099-020900-
...SOUTHEAST COLORADO...

CITY           SKY/WX    TMP DP  RH WIND       PRES   REMARKS
PUEBLO         CLEAR     62  50  64 NE7       30.08S
LA JUNTA       CLEAR     62  56  80 E8        30.04S
LAMAR          CLEAR     64  59  83 S5        29.99F
SPRINGFIELD      N/A     64  62  93 E10       30.05S
$$



USA.gov is the U.S. government's official web portal to all federal, state and local government web resources and services.